{"data":{"norad_id":64080,"intl_designator":"2025-107S","name":"STARLINK-34098","alt_names":[],"object_type":"PAYLOAD","status":"ACTIVE","operator":null,"country":"US","launch_date":"2025-05-21","launch_site_code":"AFETR","launch_vehicle":null,"mission":null,"orbit_class":"UNKNOWN","rcs_meters":null,"size_class":null,"mass_kg":null,"dimensions":null,"purposes":["comms"],"wikipedia_slug":null,"has_3d_model":false,"image_url":null,"decayed_at":null,"tle_current":{"epoch":"2026-05-25T00:02:46.580064Z","epoch_age_seconds":74564,"freshness":"FRESH","line1":"1 64080U 25107S   26145.00192801  .00018699  00000+0  68691-3 0  9997","line2":"2 64080  43.0000 130.3821 0000938 249.4395 110.6356 15.27599553 57792","mean_motion":15.27599553,"eccentricity":9.38e-5,"inclination_deg":43,"raan_deg":130.3821,"arg_perigee_deg":249.4395,"mean_anomaly_deg":110.6356,"bstar":0.00068691,"rev_number":5779,"period_min":94.265542116194,"perigee_km":482.34697418401,"apogee_km":483.63412171201,"semimajor_km":6861.127547948,"source":"CELESTRAK","updated_at":"2026-05-25T13:38:20.261290Z"}}}